Location: Rounton
(54.4000°N, 1.3500°W)
Time: 04:55:12
(UTC+00:00)

S-56A Canister/Altair - Pass Details

Date: 09 December 2021
Orbit: 633 x 2499 km, 38.9° (Epoch: 17 January)

Event Time Altitude Azimuth Distance (km) Brightness Sun altitude
Rises 02:34:52 0° 261° (W) 4,697 - -46.9°
Reaches altitude 10° 02:39:36 10° 244° (WSW) 3,313 - -46.3°
Maximum altitude 02:44:17 17° 208° (SSW) 2,428 - -45.8°
Drops below altitude 10° 02:48:08 10° 169° (S) 2,597 - -45.3°
Sets 02:51:13 0° 148° (SSE) 3,304 - -44.9°
